SCP
0 0 1 1 1 1 1 1 1 1 1 1 1 1 1 1 1 1 1 1 1 1 1 0 0 0 0 0 0 0 0 0 0 0 0 0 0 0 0 0 0 0 0
0 0 1 1 1 1 1 1 1 1 1 1 1 1 1 1 1 1 1 1 1 0 0 0 0 0 0 0 0 0 0 0 0 0 0 0 0 0 0 0 0 0 0
1 1 1 1 1 1 1 1 1 1 1 1 1 1 1 1 1 1 1 1 1 0 0 0 0 0 0 0 0 0 0 0 0 0 0 0 0 0 0 0 0 0 0
1 1 1 1 1 1 1 1 1 1 1 1 1 1 1 1 1 1 1 1 1 0 0 0 0 0 0 0 0 0 0 0 0 0 0 0 0 0 0 0 0 0 0
1 1 1 1 1 1 1 1 1 1 1 1 1 1 1 1 1 1 1 1 1 0 0 0 0 0 0 0 0 0 0 0 0 0 0 0 0 0 0 0 0 0 0
1 1 1 1 1 1 1 1 1 1 1 1 1 1 1 1 1 1 1 1 1 0 0 0 0 0 0 0 0 0 0 0 0 0 0 0 0 0 0 0 0 0 0
1 1 1 1 1 1 1 1 1 1 1 1 1 1 1 1 1 1 1 1 1 0 0 0 0 0 0 0 0 0 0 0 0 0 0 0 0 0 0 0 0 0 0
1 1 1 1 1 1 1 1 1 1 1 1 1 1 1 1 1 1 1 1 1 0 0 0 0 0 0 0 0 0 0 0 0 0 0 0 0 0 0 0 0 0 0
1 1 1 1 0 1 1 1 1 1 1 1 1 1 1 1 1 1 1 1 1 0 0 0 0 0 0 0 0 0 0 0 0 0 0 0 0 0 0 0 0 0 0
1 1 1 0 0 0 0 0 0 1 1 1 1 1 1 1 1 1 1 1 1 0 0 0 0 0 0 0 0 0 0 0 0 0 0 0 0 0 0 0 0 0 0
1 1 0 0 0 0 0 0 0 0 0 1 1 1 1 1 0 0 0 0 0 0 0 0 0 0 0 0 0 0 0 0 0 0 0 0 0 0 0 0 0 0 0
0 0 0 0 0 0 0 0 0 0 0 0 0 0 0 0 0 0 0 0 0 1 0 0 0 0 0 0 0 0 0 0 0 0 0 0 0 0 0 0 0 0 0
0 0 0 0 0 0 0 0 0 0 0 0 0 0 0 0 0 0 0 0 1 1 1 1 0 0 0 0 0 0 0 0 0 0 0 0 0 0 0 0 1 1 1
0 0 0 0 0 0 0 0 0 0 0 0 0 0 0 0 0 0 0 0 1 1 1 1 0 0 0 0 0 0 0 0 0 0 0 0 0 0 0 0 1 1 1
0 0 0 0 0 0 0 0 0 0 0 0 0 0 0 0 0 0 0 0 0 1 1 0 0 0 0 0 0 0 0 0 0 0 0 0 0 0 0 0 1 1 1
0 0 0 0 0 0 0 0 0 0 0 0 0 0 0 0 0 0 0 0 0 0 0 0 0 0 0 0 0 0 0 0 0 0 0 0 0 0 0 0 0 1 1
0 0 0 0 0 0 0 0 0 0 0 0 0 0 0 0 0 0 0 0 0 0 0 0 0 0 0 0 0 0 0 0 0 0 0 0 0 0 0 0 0 0 1
0 0 0 0 0 0 0 0 0 0 0 0 0 0 0 0 0 0 0 0 0 0 0 0 0 0 0 0 0 0 0 0 0 0 0 0 0 0 0 0 0 0 0
0 0 0 0 0 0 0 0 0 0 0 0 0 0 0 0 0 0 0 0 0 0 0 0 0 0 0 0 0 0 0 0 0 0 0 0 0 0 0 0 0 0 0
0 0 0 0 0 0 0 0 0 0 0 0 0 0 0 0 0 0 0 0 0 0 0 0 0 0 0 0 0 0 0 0 0 0 0 0 0 0 0 0 0 0 0
0 0 0 0 0 0 0 0 0 0 0 0 0 0 0 0 0 0 0 0 0 0 0 0 0 0 0 0 0 0 0 0 0 0 0 0 0 0 0 0 0 0 0
0 0 0 0 0 0 0 0 0 0 0 0 0 0 0 0 0 0 0 0 0 0 0 0 0 0 0 0 0 0 0 0 0 0 0 0 0 0 0 0 0 0 0
0 0 0 0 0 0 0 0 0 0 0 0 0 0 0 0 0 0 0 0 0 0 0 0 0 0 0 0 0 0 0 0 0 0 0 0 0 0 0 0 0 0 0
0 0 0 0 0 0 0 0 0 0 0 0 0 0 0 0 0 0 0 0 0 0 0 0 0 0 0 0 0 0 0 0 0 0 0 0 0 0 0 0 0 0 0
0 0 0 0 0 0 0 0 0 0 0 0 0 0 0 0 0 0 0 0 0 0 0 0 0 0 0 0 0 0 0 0 0 0 0 0 0 0 0 0 0 0 0
0 0 0 0 0 0 0 0 0 0 0 0 0 0 0 0 0 0 0 0 0 0 0 0 0 0 0 0 0 0 0 0 0 0 0 0 0 0 0 0 0 0 0
Wind_Speed
4 5 10 11 11 11 11 11 12 13 13 14 14 13 13 13 13 13 13 13 12 12 11 11 10 9 9 9 9 9 8 8 7 8 8 8 8 7 7 8 8 7 8
6 6 11 12 12 11 11 11 12 12 12 13 13 13 12 12 12 12 12 12 11 11 11 10 10 9 9 8 8 9 8 7 7 7 7 7 7 7 7 8 8 5 8
7 7 9 12 12 12 11 11 12 12 12 12 12 12 12 12 12 12 12 11 10 10 10 10 9 9 8 8 8 8 7 7 7 7 6 3 4 6 7 8 8 8 8
8 6 7 11 11 11 11 11 11 11 12 11 11 11 11 11 11 11 11 11 10 9 9 9 8 8 7 7 7 7 7 6 6 6 3 3 3 6 7 8 8 8 8
6 5 6 12 11 11 10 10 10 11 11 11 11 10 10 10 9 9 9 10 9 8 8 8 8 7 7 6 6 6 6 6 6 5 3 3 2 5 7 8 8 8 8
6 5 6 12 11 11 11 10 10 10 10 10 10 10 9 9 9 8 8 8 8 8 7 7 7 6 6 6 6 5 5 5 4 3 3 3 3 6 7 8 9 9 9
6 4 5 11 10 10 10 9 9 9 9 9 9 9 8 8 8 8 8 7 7 7 7 6 6 6 5 5 5 5 5 5 3 3 3 3 4 7 7 8 8 9 9
6 5 5 9 10 9 9 9 8 8 8 8 8 8 8 7 7 8 7 6 6 6 6 6 6 5 5 5 5 5 4 4 3 3 3 3 5 7 7 7 8 9 9
5 4 3 4 6 8 8 7 7 6 7 7 7 7 8 7 8 7 7 6 6 6 6 6 6 5 5 4 4 4 4 4 2 2 3 3 5 7 7 8 8 8 9
4 3 3 3 3 3 4 7 7 7 7 7 7 7 7 6 6 7 6 6 6 6 6 5 5 5 5 4 4 4 4 3 2 2 2 4 7 8 8 8 9 9 10
3 2 2 3 2 2 2 4 4 5 5 5 5 6 5 2 2 3 5 6 6 6 6 5 5 5 4 4 4 4 3 1 2 2 2 5 7 8 9 9 9 9 10
3 3 2 2 2 2 2 2 1 1 1 1 1 2 1 1 2 3 4 6 6 6 6 6 5 4 3 2 3 3 1 2 2 2 3 6 7 9 9 9 9 9 10
3 3 2 2 2 2 1 1 1 1 1 1 1 1 1 1 1 1 1 2 3 4 3 3 3 2 1 1 1 1 2 2 2 2 3 7 7 8 8 9 9 9 10
3 2 2 2 2 1 1 1 1 1 1 1 1 2 1 1 1 1 1 1 1 1 1 1 1 1 1 2 2 2 2 2 2 2 3 7 7 8 8 8 9 9 10
3 2 2 2 2 1 1 1 1 1 1 1 1 2 2 2 2 2 1 1 2 2 2 2 2 2 2 2 2 3 3 3 3 2 2 6 7 8 8 8 8 8 9
4 3 2 2 2 2 2 1 1 2 1 1 1 2 2 2 2 2 2 2 2 2 2 2 2 2 2 2 2 2 3 3 2 2 2 3 6 6 7 7 8 8 8
3 3 2 3 2 2 2 2 1 2 1 1 1 2 2 2 2 2 2 2 2 2 2 2 2 1 1 1 2 2 2 2 2 2 2 2 2 5 6 6 6 7 8
3 3 2 2 1 1 1 2 1 1 1 1 1 2 2 3 3 2 2 2 2 1 2 2 2 1 1 1 1 1 1 1 2 2 2 2 2 2 4 5 6 6 7
3 3 2 0 0 0 0 0 0 0 1 1 1 1 2 3 3 2 2 1 1 1 1 2 1 2 1 1 1 1 1 1 2 2 2 2 2 2 2 4 5 6 7
2 2 2 1 0 1 1 1 1 1 1 1 0 1 1 1 2 2 1 1 1 1 1 1 2 1 1 1 0 1 1 1 1 2 3 2 2 3 3 3 3 4 6
3 3 2 1 1 1 1 1 0 1 1 1 1 1 0 0 1 2 2 2 2 2 2 2 2 2 1 1 1 1 2 1 1 1 1 2 2 3 3 3 2 2 3
3 3 2 2 1 1 1 0 1 0 0 0 1 2 1 0 1 1 2 2 2 1 2 2 2 2 1 1 1 1 2 2 2 1 1 2 2 2 2 3 3 3 3
3 3 2 2 1 1 1 1 1 1 1 2 2 2 2 1 1 1 2 2 2 1 1 1 2 3 1 0 1 2 1 1 2 2 1 1 1 1 2 2 3 3 3
3 2 2 2 1 1 2 2 2 1 1 0 0 0 1 1 0 1 2 2 2 1 1 1 2 2 2 1 0 0 1 2 1 2 2 1 2 2 2 2 3 3 3
2 2 2 1 1 1 1 2 1 1 1 0 1 1 2 2 1 1 1 1 1 1 1 1 2 2 2 2 2 1 1 0 1 2 2 3 2 2 2 3 3 3 3
2 2 2 2 1 1 1 1 2 2 1 1 1 1 1 1 1 1 1 1 1 1 1 1 1 2 1 2 1 1 2 1 2 2 3 3 3 3 2 2 3 3 3
Wind_Direction
169 165 162 151 144 138 133 129 125 121 122 124 126 128 133 137 140 142 144 144 144 143 141 139 138 136 137 142 148 147 145 142 145 147 147 147 147 148 149 147 145 144 148
158 161 158 152 146 141 137 134 130 127 125 127 129 130 133 139 143 144 146 146 147 148 146 144 143 143 142 147 152 153 154 154 156 158 158 161 165 162 157 158 157 149 151
142 151 155 154 149 145 142 138 135 133 129 130 132 134 136 138 144 148 150 151 152 152 150 149 149 148 149 147 149 155 156 156 161 166 162 154 169 169 162 164 163 157 159
137 144 152 153 149 148 145 142 140 138 136 135 135 136 139 141 144 150 153 156 156 154 153 153 153 153 152 151 152 155 158 166 170 173 159 158 176 176 168 165 164 167 166
131 138 154 151 148 146 146 145 144 142 141 142 143 143 142 141 142 150 154 158 159 159 159 160 161 160 160 164 165 165 169 175 176 170 160 164 175 185 181 173 171 174 171
127 135 155 152 153 148 146 148 147 146 148 150 150 150 150 150 149 152 157 160 161 164 167 168 166 162 166 173 178 178 181 185 166 156 165 175 184 194 190 186 183 180 179
130 128 147 151 151 149 149 149 151 152 154 156 157 156 158 158 159 162 165 166 168 169 171 172 172 170 178 185 189 190 195 192 162 167 174 183 199 203 199 197 191 186 187
135 129 135 151 153 153 152 153 156 157 158 159 161 164 165 166 169 171 171 177 182 184 182 182 181 183 189 196 201 203 208 209 189 190 189 198 207 210 208 205 203 197 194
125 123 125 143 151 153 155 157 157 160 164 162 164 171 174 176 178 178 181 190 197 197 194 195 197 197 198 204 211 215 219 223 184 191 211 210 212 213 213 211 210 204 199
109 117 122 124 128 135 154 162 165 169 174 174 177 179 183 189 193 191 193 200 206 208 209 206 209 207 206 211 218 217 217 219 197 206 215 218 222 219 215 213 214 211 204
123 118 127 124 122 126 145 165 166 170 182 186 190 193 191 194 205 209 213 213 213 213 216 214 211 208 210 222 229 225 217 186 198 220 221 227 227 222 219 217 216 215 214
165 159 134 138 146 140 165 149 144 154 162 168 178 197 178 175 209 216 234 228 221 218 222 223 222 219 222 237 243 237 214 200 205 224 230 234 235 230 227 224 224 221 219
170 164 156 158 148 142 137 136 132 133 140 160 172 176 155 161 225 238 232 250 244 232 228 235 235 225 216 221 231 229 218 213 215 229 235 236 238 238 234 230 229 226 221
153 167 161 157 151 152 145 159 159 163 173 205 203 186 172 192 210 218 220 225 221 224 216 212 219 227 229 228 222 224 225 216 219 228 232 237 236 237 237 234 234 232 226
160 167 171 159 165 167 165 200 165 188 202 220 214 199 187 192 209 217 227 224 224 213 208 199 211 223 236 240 233 225 228 225 224 231 242 241 235 233 234 236 236 237 235
172 174 161 180 188 180 187 202 192 202 208 204 217 207 192 189 198 209 222 229 229 215 208 203 204 213 228 226 239 233 230 226 224 229 231 241 237 227 231 237 240 237 236
178 170 168 201 186 186 203 212 201 208 195 206 225 217 200 192 197 203 211 229 228 210 190 189 180 192 214 218 241 240 229 223 222 231 231 228 233 230 235 240 242 242 240
164 167 188 204 179 194 210 220 219 217 193 210 221 217 207 199 192 194 204 224 217 183 173 181 166 165 211 245 257 275 259 236 230 232 231 227 232 239 243 243 243 243 243
168 165 176 194 194 195 222 266 314 221 201 218 221 211 209 204 197 189 195 204 193 170 179 186 162 167 182 231 250 270 277 251 237 226 227 232 233 238 243 254 253 248 245
145 147 165 175 149 102 74 51 38 22 7 2 288 243 207 207 194 178 187 183 160 150 162 181 168 154 170 199 257 322 301 269 241 224 235 239 238 244 244 244 254 261 252
134 152 169 164 134 110 89 90 67 10 357 351 335 344 345 197 186 175 180 159 148 156 169 179 152 136 129 110 82 357 335 317 284 237 243 241 246 252 246 237 235 241 256
163 175 169 166 148 145 136 129 170 146 88 7 357 6 358 23 157 179 158 155 150 139 135 155 153 143 152 125 127 93 346 341 346 327 268 241 253 252 252 249 241 238 242
178 187 181 167 167 154 119 92 72 55 44 36 21 8 348 349 162 165 148 146 149 153 171 178 162 152 166 159 134 148 154 246 309 326 307 283 277 263 266 261 250 247 240
185 169 150 154 175 169 149 135 131 127 126 231 281 328 348 19 98 144 129 148 153 163 180 191 155 161 157 166 156 168 186 179 187 306 320 312 296 273 271 271 266 255 246
158 146 140 144 162 155 143 150 142 126 134 30 17 39 18 15 31 67 126 143 151 172 184 163 156 156 157 168 173 177 181 256 209 208 277 307 316 287 274 267 261 259 255
134 132 133 140 171 185 143 138 152 154 131 96 39 22 14 16 25 32 91 138 161 163 170 165 160 146 157 164 173 170 175 190 209 206 235 268 285 291 290 271 259 264 262